Flag for Germany Weather past 2 weeks in Radebeul, Saxony, Germany

45 °F


Feels Like: 45 °F
Forecast: 47 / 54 °F
Wind: 1 mph from Northeast

Location: Dresden-Klotzsche

Current Time: Oct 9, 2015 at 12:01:21 AM

Latest Report: Oct 8, 2015 at 11:00 PM

Visibility: 4 mi

Pressure: 30.15 "Hg

Humidity: 100%

Dew point: 45 °F

Location of RadebeulLocation

Historic Weather in Radebeul — Graph


Radebeul temperature yesterday

Maximum temperature yesterday: 57 °F (at 3:00 AM)
Minimum temperature yesterday: 46 °F (at 10:00 PM)
Average temperature yesterday: 51 °F

Past Weeks' High & Low Weather Summary

High67 °F (Oct 5, 3:00 PM)100% (Oct 8, 4:00 AM)30.66 "Hg (Oct 8, 4:00 AM)
Low35 °F (Oct 2, 7:00 AM)41% (Oct 2, 3:00 PM)29.78 "Hg (Oct 6, 6:00 PM)
Average54 °F79%30.21 "Hg
* Reported Sep 23 10:00 PM — Oct 8 10:00 PM, Radebeul, Weather by CustomWeather, © 2015

Note: Actual official high and low records may vary slightly from our data, if they occured in-between our weather recording intervals... More about our weather records


Radebeul weather history for previous 24 hours

Time TempWeatherWind HumidityBarometerVisibility
10:00 PM
Thu, Oct 8
46 °FFog.1 mph100%30.15 "Hg3 mi
9:00 PM46 °FLow clouds.1 mph100%30.15 "Hg3 mi
8:00 PM46 °FDrizzle. Low clouds.2 mph100%30.14 "Hg2 mi
7:00 PM47 °FLight rain. Low clouds.2 mph100%30.13 "Hg1 mi
6:00 PM47 °FLight rain. Dense fog.2 mph100%30.12 "Hg1 mi
5:00 PM48 °FFog.3 mph100%30.11 "Hg0 mi
4:00 PM49 °FFog.3 mph100%30.10 "Hg1 mi
3:00 PM49 °FLight rain. Low clouds.3 mph100%30.09 "Hg1 mi
2:00 PM50 °FRain. Low clouds.3 mph100%30.09 "Hg1 mi
1:00 PM50 °FLow clouds.3 mph99%30.08 "Hg3 mi
12:00 PM50 °FRain. Low clouds.3 mph100%30.07 "Hg2 mi
10:00 AM51 °FRain. Low clouds.3 mph100%30.03 "Hg1 mi
9:00 AM53 °FRain. Low clouds.5 mph100%30.01 "Hg2 mi
8:00 AM54 °FRain. Low clouds.5 mph100%29.98 "Hg2 mi
7:00 AM56 °FLight rain. Low clouds.5 mph100%29.97 "Hg2 mi
4:00 AM57 °FHeavy rain. Low clouds.3 mph100%29.96 "Hg2 mi
3:00 AM57 °FLight rain. Low clouds.3 mph99%29.97 "Hg2 mi
2:00 AM57 °FLight rain. Low clouds.2 mph99%29.97 "Hg2 mi
1:00 AM57 °FLight rain. Overcast.3 mph98%29.96 "Hg2 mi
Weather by CustomWeather, © 2015

See weather overviewHow to use our weather pages